GW0353 Weather Reports


time (UTC)temp
F
wind
direction
speed
knots
gust
knots
rain 1hr
in
rain 24hr
in
rain mn
in
humidity
%
barometer
mb
20260510130558 37 177 0.0 0.0 0.00 0.00 0.00 70 1026.0
20260510130058 37 0 0.0 0.0 0.00 0.00 0.00 71 1025.8
20260510125632 37 0 0.0 0.0 0.00 0.00 0.00 72 1026.0
20260510125059 37 0 0.0 0.0 0.00 0.00 0.00 71 1025.9
20260510124559 37 0 0.0 0.0 0.00 0.00 0.00 72 1025.9
20260510124059 37 0 0.0 0.0 0.00 0.00 0.00 72 1025.8
20260510123559 37 0 0.0 0.0 0.00 0.00 0.00 71 1025.8
20260510123100 37 0 0.0 0.0 0.00 0.00 0.00 70 1025.8
20260510122559 38 148 0.0 0.0 0.00 0.00 0.00 71 1025.8
20260510122058 38 0 0.0 0.0 0.00 0.00 0.00 72 1026.0
20260510121603 38 0 0.0 0.0 0.00 0.00 0.00 72 1025.8
20260510121059 38 0 0.0 0.9 0.00 0.00 0.00 72 1025.9
20260510120559 38 0 0.0 0.9 0.00 0.00 0.00 70 1025.9
20260510120056 38 185 0.0 0.0 0.00 0.00 0.00 68 1025.9
20260510115558 39 0 0.0 0.0 0.00 0.00 0.00 67 1026.0
20260510115059 40 0 0.0 0.0 0.00 0.00 0.00 66 1026.0
20260510114559 40 0 0.0 0.0 0.00 0.00 0.00 67 1025.7
20260510114059 40 0 0.0 1.7 0.00 0.00 0.00 67 1025.8
20260510113601 40 0 0.0 1.7 0.00 0.00 0.00 66 1025.8
20260510113058 39 184 0.9 1.7 0.00 0.00 0.00 67 1025.8
20260510112558 40 0 0.0 0.9 0.00 0.00 0.00 65 1025.8
20260510112055 40 0 0.0 0.9 0.00 0.00 0.00 65 1025.6
20260510111557 40 0 0.0 0.0 0.00 0.00 0.00 71 1025.5
20260510111057 40 0 0.0 0.0 0.00 0.00 0.00 69 1025.4
20260510110559 40 0 0.0 0.0 0.00 0.00 0.00 64 1025.5
20260510105559 40 0 0.0 0.0 0.00 0.00 0.00 63 1025.3
20260510105059 41 0 0.0 0.9 0.00 0.00 0.00 62 1025.3
20260510104559 41 0 0.0 1.7 0.00 0.00 0.00 63 1025.2
20260510104100 41 0 0.0 1.7 0.00 0.00 0.00 61 1025.2
20260510103558 42 0 0.0 1.7 0.00 0.00 0.00 60 1025.2
20260510103056 42 0 0.0 0.0 0.00 0.00 0.00 65 1025.2
20260510102558 42 0 0.0 0.0 0.00 0.00 0.00 65 1025.2
20260510102059 42 0 0.0 0.0 0.00 0.00 0.00 62 1025.2
20260510101604 42 0 0.0 0.0 0.00 0.00 0.00 60 1025.3
20260510101100 42 0 0.0 1.7 0.00 0.00 0.00 60 1025.3
20260510100559 42 0 0.0 1.7 0.00 0.00 0.00 62 1025.5
20260510100132 42 179 0.0 1.7 0.00 0.00 0.00 57 1025.5
20260510095605 42 0 0.0 0.9 0.00 0.00 0.00 58 1025.5
20260510095135 42 0 0.0 0.0 0.00 0.00 0.00 56 1025.3
20260510094559 43 0 0.0 0.0 0.00 0.00 0.00 56 1025.3
20260510094059 43 0 0.0 0.0 0.00 0.00 0.00 57 1025.3
20260510093558 44 0 0.0 0.0 0.00 0.00 0.00 54 1025.3
20260510093102 44 0 0.0 0.9 0.00 0.00 0.00 54 1025.3
20260510092558 45 0 0.0 0.9 0.00 0.00 0.00 52 1025.3
20260510092100 45 0 0.0 0.9 0.00 0.00 0.00 54 1025.2
20260510091559 45 0 0.0 0.9 0.00 0.00 0.00 52 1025.4
20260510091058 45 0 0.0 0.9 0.00 0.00 0.00 50 1025.3
20260510090559 45 0 0.0 0.9 0.00 0.00 0.00 50 1025.2
20260510090111 46 200 0.0 0.9 0.00 0.00 0.00 51 1025.3
20260510085559 46 229 0.0 0.9 0.00 0.00 0.00 51 1025.3
20260510085059 46 236 0.0 0.9 0.00 0.00 0.00 51 1025.3
20260510084556 46 0 0.0 0.9 0.00 0.00 0.00 51 1025.3
20260510084058 47 0 0.0 2.6 0.00 0.00 0.00 50 1025.3
20260510083558 46 0 0.0 2.6 0.00 0.00 0.00 51 1025.3
20260510083102 46 0 0.9 2.6 0.00 0.00 0.00 49 1025.4
20260510082558 46 173 0.0 0.9 0.00 0.00 0.00 50 1025.3
20260510082058 47 0 0.0 0.9 0.00 0.00 0.00 49 1025.3
20260510081557 47 0 0.0 1.7 0.00 0.00 0.00 54 1025.3
20260510081058 47 0 0.0 1.7 0.00 0.00 0.00 55 1025.3
20260510080558 47 193 0.0 0.9 0.00 0.00 0.00 49 1025.3
20260510080100 47 0 0.0 0.0 0.00 0.00 0.00 51 1025.3
20260510075557 48 0 0.0 0.9 0.00 0.00 0.00 50 1025.3
20260510075058 48 0 0.0 0.9 0.00 0.00 0.00 51 1025.2
20260510074558 48 0 0.0 2.6 0.00 0.00 0.00 51 1025.1
20260510074059 48 0 0.0 2.6 0.00 0.00 0.00 51 1025.3
20260510073558 49 167 0.0 0.9 0.00 0.00 0.00 48 1025.2
20260510073102 49 0 0.0 2.6 0.00 0.00 0.00 48 1025.1
20260510072558 49 0 0.0 2.6 0.00 0.00 0.00 49 1025.2
20260510072058 49 141 0.0 1.7 0.00 0.00 0.00 45 1025.3
20260510071601 49 191 0.0 1.7 0.00 0.00 0.00 44 1025.2
20260510071058 50 0 0.0 1.7 0.00 0.00 0.00 45 1025.2
20260510070558 49 203 0.0 0.9 0.00 0.00 0.00 45 1025.3
20260510070101 49 0 0.0 0.9 0.00 0.00 0.00 45 1025.1
20260510065558 49 181 0.0 0.9 0.00 0.00 0.00 44 1025.2
20260510065058 49 0 0.0 1.7 0.00 0.00 0.00 44 1025.3
20260510064604 49 259 0.0 1.7 0.00 0.00 0.00 45 1025.2
20260510064057 49 0 0.0 1.7 0.00 0.00 0.00 46 1025.2
20260510063558 49 0 0.0 1.7 0.00 0.00 0.00 47 1025.2
20260510063059 50 0 0.0 1.7 0.00 0.00 0.00 45 1025.2
20260510062557 50 0 0.0 1.7 0.00 0.00 0.00 44 1025.2
20260510062100 50 0 0.0 0.9 0.00 0.00 0.00 42 1025.1
20260510061556 50 176 0.0 1.7 0.00 0.00 0.00 43 1024.9
20260510061057 50 0 0.0 1.7 0.00 0.00 0.00 45 1024.9
20260510060559 50 0 0.0 0.9 0.00 0.00 0.00 43 1024.9
20260510060100 51 0 0.0 1.7 0.00 0.00 0.00 41 1025.0
20260510055558 51 249 0.0 1.7 0.00 0.00 0.00 44 1024.9
20260510055058 52 0 0.0 1.7 0.00 0.00 0.00 45 1024.9
20260510054558 51 0 0.0 0.9 0.00 0.00 0.00 43 1024.9
20260510054057 52 0 0.0 0.9 0.00 0.00 0.00 41 1024.9
20260510053558 53 0 0.0 0.9 0.00 0.00 0.00 39 1024.9
20260510053056 52 233 0.0 0.0 0.00 0.00 0.00 38 1025.0
20260510052600 53 0 0.0 0.0 0.00 0.00 0.00 37 1024.9
20260510052100 53 0 0.0 1.7 0.00 0.00 0.00 37 1025.0
20260510051559 53 0 0.0 1.7 0.00 0.00 0.00 37 1025.1
20260510051057 54 0 0.0 1.7 0.00 0.00 0.00 35 1024.9
20260510050557 54 231 0.0 0.9 0.00 0.00 0.00 36 1024.9
20260510050058 54 0 0.0 0.9 0.00 0.00 0.00 36 1024.9
20260510045558 55 0 0.0 0.9 0.00 0.00 0.00 34 1024.9
20260510045058 55 0 0.0 0.9 0.00 0.00 0.00 33 1024.9
20260510044558 55 0 0.0 2.6 0.00 0.00 0.00 32 1024.8
20260510044059 56 0 0.0 4.3 0.00 0.00 0.00 33 1024.6
20260510043558 56 219 1.7 4.3 0.00 0.00 0.00 32 1024.6
20260510043100 57 0 0.0 0.9 0.00 0.00 0.00 32 1024.6
20260510042602 57 0 0.0 1.7 0.00 0.00 0.00 32 1024.4
20260510042058 57 0 0.0 2.6 0.00 0.00 0.00 31 1024.3
20260510041558 58 165 1.7 2.6 0.00 0.00 0.00 29 1024.3
20260510041057 58 173 0.0 1.7 0.00 0.00 0.00 28 1024.2
20260510040557 58 0 0.0 1.7 0.00 0.00 0.00 28 1024.1
20260510040104 59 170 0.9 1.7 0.00 0.00 0.00 29 1024.0
20260510035555 59 217 0.9 1.7 0.00 0.00 0.00 28 1024.0
20260510035057 60 188 0.0 1.7 0.00 0.00 0.00 28 1023.9
20260510034604 60 0 0.0 2.6 0.00 0.00 0.00 28 1023.9
20260510034058 61 169 0.0 2.6 0.00 0.00 0.00 27 1023.7
20260510033556 62 0 0.0 2.6 0.00 0.00 0.00 26 1023.6
20260510033115 62 255 0.9 2.6 0.00 0.00 0.00 26 1023.6
20260510032559 62 0 0.9 2.6 0.00 0.00 0.00 26 1023.4
20260510032101 61 0 0.9 2.6 0.00 0.00 0.00 27 1023.4
20260510031600 62 168 0.9 2.6 0.00 0.00 0.00 27 1023.3
20260510031059 63 191 0.9 2.6 0.00 0.00 0.00 25 1023.2
20260510030557 63 0 0.0 1.7 0.00 0.00 0.00 25 1023.1
20260510030058 64 180 0.0 1.7 0.00 0.00 0.00 26 1023.1
20260510025557 65 0 0.0 1.7 0.00 0.00 0.00 25 1022.9
20260510025058 67 180 0.0 1.7 0.00 0.00 0.00 24 1022.9
20260510024602 68 220 0.0 4.3 0.00 0.00 0.00 21 1022.8
20260510024057 68 120 0.9 5.2 0.00 0.00 0.00 20 1022.8
20260510023558 69 38 1.7 5.2 0.00 0.00 0.00 20 1022.8
20260510023057 69 0 0.0 5.2 0.00 0.00 0.00 21 1022.7
20260510022557 70 70 1.7 5.2 0.00 0.00 0.00 20 1022.6
20260510022059 70 11 0.9 5.2 0.00 0.00 0.00 20 1022.6
20260510021557 70 315 1.7 5.2 0.00 0.00 0.00 20 1022.6
20260510021057 70 34 2.6 9.6 0.00 0.00 0.00 20 1022.6
20260510020602 71 80 2.6 9.6 0.00 0.00 0.00 19 1022.6
20260510020100 71 80 4.3 11.3 0.00 0.00 0.00 19 1022.6
20260510015557 71 41 4.3 11.3 0.00 0.00 0.00 19 1022.4
20260510015057 71 48 3.5 8.7 0.00 0.00 0.00 20 1022.5
20260510014557 72 39 3.5 8.7 0.00 0.00 0.00 19 1022.4
20260510014057 72 47 0.9 3.5 0.00 0.00 0.00 19 1022.4
20260510013558 73 43 0.9 7.8 0.00 0.00 0.00 20 1022.3
20260510013059 73 48 1.7 7.8 0.00 0.00 0.00 19 1022.2
20260510012601 73 76 1.7 6.1 0.00 0.00 0.00 19 1022.2
20260510012058 73 48 1.7 7.8 0.00 0.00 0.00 20 1022.3
20260510011612 73 51 1.7 7.8 0.00 0.00 0.00 20 1022.3
20260510011057 73 43 3.5 7.8 0.00 0.00 0.00 20 1022.2
20260510010555 73 56 2.6 7.0 0.00 0.00 0.00 21 1022.3
20260510010103 73 32 3.5 7.0 0.00 0.00 0.00 20 1022.4
20260510005558 73 97 0.9 10.4 0.00 0.00 0.00 21 1022.4
20260510005057 73 11 3.5 10.4 0.00 0.00 0.00 21 1022.3
20260510004600 74 55 4.3 10.4 0.00 0.00 0.00 20 1022.4
20260510004100 74 95 0.9 9.6 0.00 0.00 0.00 21 1022.4
20260510003558 74 116 2.6 7.0 0.00 0.00 0.00 20 1022.4
20260510003116 74 0 2.6 8.7 0.00 0.00 0.00 20 1022.4
20260510002557 74 85 4.3 8.7 0.00 0.00 0.00 20 1022.4
20260510002058 74 167 3.5 7.0 0.00 0.00 0.00 19 1022.4
20260510001556 75 219 1.7 7.0 0.00 0.00 0.00 20 1022.4
20260510001058 75 0 0.0 7.0 0.00 0.00 0.00 20 1022.4
20260510000600 74 120 0.9 7.0 0.00 0.00 0.00 20 1022.4
20260509235557 74 86 2.6 8.7 0.00 0.00 0.00 20 1022.5
20260509235057 74 106 5.2 9.6 0.00 0.00 0.00 20 1022.4
20260509234611 75 67 5.2 9.6 0.00 0.00 0.00 20 1022.4
20260509234057 74 168 1.7 9.6 0.00 0.00 0.00 20 1022.5
20260509233558 74 177 5.2 14.8 0.00 0.00 0.00 21 1022.5
20260509233057 74 122 4.3 14.8 0.00 0.00 0.00 21 1022.3
20260509232557 74 46 0.0 11.3 0.00 0.00 0.00 21 1022.4
20260509232058 74 122 5.2 11.3 0.00 0.00 0.00 20 1022.5
20260509231557 74 96 6.1 11.3 0.00 0.00 0.00 21 1022.5
20260509231057 74 143 2.6 10.4 0.00 0.00 0.00 20 1022.4
20260509230557 75 143 3.5 10.4 0.00 0.00 0.00 21 1022.6
20260509230108 75 110 0.9 4.3 0.00 0.00 0.00 21 1022.5
20260509225557 76 345 0.9 4.3 0.00 0.00 0.00 21 1022.6
20260509225057 76 77 1.7 10.4 0.00 0.00 0.00 20 1022.5
20260509224556 76 20 2.6 10.4 0.00 0.00 0.00 20 1022.5
20260509224057 76 335 0.9 2.6 0.00 0.00 0.00 21 1022.6
20260509223557 76 350 0.0 6.1 0.00 0.00 0.00 21 1022.6
20260509223058 76 0 2.6 6.1 0.00 0.00 0.00 20 1022.8
20260509222557 75 272 0.9 5.2 0.00 0.00 0.00 21 1022.9
20260509222058 75 295 2.6 6.1 0.00 0.00 0.00 20 1023.0
20260509221555 75 226 1.7 6.1 0.00 0.00 0.00 21 1023.1
20260509221057 74 44 1.7 6.1 0.00 0.00 0.00 22 1023.0
20260509220556 74 33 2.6 7.0 0.00 0.00 0.00 21 1023.1
20260509215558 75 60 2.6 7.0 0.00 0.00 0.00 21 1023.2
20260509215058 76 342 1.7 8.7 0.00 0.00 0.00 21 1023.3
20260509214558 77 360 2.6 8.7 0.00 0.00 0.00 21 1023.3
20260509214100 77 43 0.0 7.0 0.00 0.00 0.00 21 1023.2
20260509213558 76 259 2.6 7.0 0.00 0.00 0.00 21 1023.4
20260509213102 75 209 1.7 6.1 0.00 0.00 0.00 22 1023.4
20260509212601 75 223 0.9 7.8 0.00 0.00 0.00 22 1023.4
20260509212058 74 249 0.9 8.7 0.00 0.00 0.00 21 1023.4
20260509211603 74 105 2.6 11.3 0.00 0.00 0.00 21 1023.4
20260509211058 74 118 4.3 11.3 0.00 0.00 0.00 23 1023.5
20260509210600 75 47 1.7 10.4 0.00 0.00 0.00 21 1023.5
20260509205557 76 0 1.7 8.7 0.00 0.00 0.00 20 1023.5
20260509205057 76 41 1.7 7.8 0.00 0.00 0.00 22 1023.5
20260509204557 77 298 1.7 7.0 0.00 0.00 0.00 21 1023.5
20260509204057 76 313 0.9 4.3 0.00 0.00 0.00 20 1023.6
20260509203557 76 238 0.9 8.7 0.00 0.00 0.00 21 1023.6
20260509203059 75 309 0.9 8.7 0.00 0.00 0.00 21 1023.7
20260509202600 75 154 2.6 6.1 0.00 0.00 0.00 21 1023.7
20260509202057 75 174 0.0 5.2 0.00 0.00 0.00 22 1023.8
20260509201559 73 234 0.0 10.4 0.00 0.00 0.00 21 1023.8
20260509201056 73 92 1.7 10.4 0.00 0.00 0.00 23 1024.0
20260509200558 74 100 3.5 10.4 0.00 0.00 0.00 21 1024.0
20260509195558 73 63 0.9 7.0 0.00 0.00 0.00 23 1024.2
20260509195057 73 0 1.7 7.0 0.00 0.00 0.00 23 1024.4
20260509194559 73 125 5.2 10.4 0.00 0.00 0.00 22 1024.4
20260509194057 73 225 3.5 10.4 0.00 0.00 0.00 23 1024.5
20260509193559 74 309 2.6 5.2 0.00 0.00 0.00 23 1024.6
20260509193100 74 83 1.7 5.2 0.00 0.00 0.00 23 1024.6
20260509192557 74 63 1.7 5.2 0.00 0.00 0.00 24 1024.6
20260509192059 75 296 1.7 5.2 0.00 0.00 0.00 22 1024.6
20260509191557 75 281 1.7 5.2 0.00 0.00 0.00 23 1024.6
20260509191101 74 297 0.0 4.3 0.00 0.00 0.00 24 1024.6
20260509190649 73 271 1.7 4.3 0.00 0.00 0.00 24 1024.7
20260509190058 73 257 0.9 7.0 0.00 0.00 0.00 24 1024.7
20260509185558 72 32 1.7 7.0 0.00 0.00 0.00 25 1024.7
20260509185057 72 49 0.0 4.3 0.00 0.00 0.00 25 1024.8
20260509184602 73 113 0.9 5.2 0.00 0.00 0.00 24 1024.9
20260509184057 73 308 1.7 5.2 0.00 0.00 0.00 25 1025.1
20260509183601 74 265 0.9 5.2 0.00 0.00 0.00 25 1025.2
20260509183139 73 323 0.9 5.2 0.00 0.00 0.00 25 1025.1
20260509182557 74 229 0.9 2.6 0.00 0.00 0.00 25 1025.1
20260509182058 73 266 0.9 2.6 0.00 0.00 0.00 25 1025.2
20260509181616 72 65 0.9 2.6 0.00 0.00 0.00 25 1025.2
20260509181057 71 30 0.9 4.3 0.00 0.00 0.00 24 1025.4
20260509180557 70 316 1.7 4.3 0.00 0.00 0.00 24 1025.3
20260509180104 70 294 0.9 4.3 0.00 0.00 0.00 25 1025.3
20260509175557 70 307 0.9 4.3 0.00 0.00 0.00 25 1025.3
20260509175059 70 29 1.7 4.3 0.00 0.00 0.00 25 1025.3
20260509174559 69 273 0.9 6.1 0.00 0.00 0.00 26 1025.3
20260509174058 68 15 3.5 7.0 0.00 0.00 0.00 28 1025.1
20260509173601 67 47 3.5 7.0 0.00 0.00 0.00 28 1025.3
20260509173106 67 63 2.6 7.0 0.00 0.00 0.00 28 1025.1
20260509172558 68 49 1.7 6.1 0.00 0.00 0.00 30 1025.2
20260509172100 68 30 2.6 4.3 0.00 0.00 0.00 30 1025.1
20260509171601 68 53 0.9 2.6 0.00 0.00 0.00 29 1025.1
20260509171058 67 0 0.9 5.2 0.00 0.00 0.00 33 1025.1
20260509170557 67 304 2.6 5.2 0.00 0.00 0.00 33 1025.1
20260509170101 67 41 0.9 3.5 0.00 0.00 0.00 36 1025.1
20260509165558 66 41 1.7 3.5 0.00 0.00 0.00 34 1025.2
20260509165057 66 39 0.9 2.6 0.00 0.00 0.00 35 1025.2
20260509164608 66 314 0.0 2.6 0.00 0.00 0.00 34 1025.2
20260509164057 65 0 0.9 2.6 0.00 0.00 0.00 34 1025.4
20260509163558 65 309 0.9 2.6 0.00 0.00 0.00 35 1025.4
20260509163108 64 0 0.0 3.5 0.00 0.00 0.00 37 1025.6
20260509162557 62 0 0.0 3.5 0.00 0.00 0.00 38 1025.6
20260509162056 61 49 0.0 3.5 0.00 0.00 0.00 40 1025.5
20260509161605 61 74 0.9 3.5 0.00 0.00 0.00 39 1025.5
20260509161057 61 0 0.9 3.5 0.00 0.00 0.00 39 1025.6
20260509160558 60 52 1.7 3.5 0.00 0.00 0.00 40 1025.6
20260509160100 60 46 1.7 3.5 0.00 0.00 0.00 40 1025.5
20260509155559 60 64 0.0 3.5 0.00 0.00 0.00 39 1025.5
20260509155058 59 0 0.9 3.5 0.00 0.00 0.00 40 1025.5
20260509154606 58 75 0.9 3.5 0.00 0.00 0.00 40 1025.7
20260509154058 57 27 1.7 3.5 0.00 0.00 0.00 43 1025.6
20260509153557 57 62 1.7 3.5 0.00 0.00 0.00 44 1025.6
20260509153059 57 0 0.0 2.6 0.00 0.00 0.00 44 1025.5
20260509152557 56 49 0.0 2.6 0.00 0.00 0.00 47 1025.7
20260509152057 55 56 0.0 2.6 0.00 0.00 0.00 48 1025.7
20260509151559 54 51 0.9 1.7 0.00 0.00 0.00 49 1025.7
20260509151058 54 68 0.9 2.6 0.00 0.00 0.00 50 1025.7
20260509150558 53 60 1.7 2.6 0.00 0.00 0.00 49 1025.8
20260509150058 53 63 0.0 2.6 0.00 0.00 0.00 51 1025.9
20260509145558 53 298 0.0 2.6 0.00 0.00 0.00 50 1025.8
20260509145059 52 38 0.0 1.7 0.00 0.00 0.00 53 1025.7
20260509144558 51 0 0.0 1.7 0.00 0.00 0.00 56 1025.7
20260509144057 49 56 0.0 0.9 0.00 0.00 0.00 56 1025.7
20260509143558 48 67 0.0 0.9 0.00 0.00 0.00 60 1025.9
20260509143103 48 0 0.0 0.9 0.00 0.00 0.00 61 1026.0
20260509142557 48 0 0.0 0.9 0.00 0.00 0.00 64 1026.0
20260509142058 47 122 0.0 0.9 0.00 0.00 0.00 63 1026.0
20260509141609 47 165 0.0 0.0 0.00 0.00 0.00 63 1026.0
20260509141059 46 0 0.0 0.0 0.00 0.00 0.00 60 1026.0
20260509140558 45 0 0.0 0.0 0.00 0.00 0.00 62 1026.0
20260509140107 44 0 0.0 0.0 0.00 0.00 0.00 63 1026.0
20260509135559 43 0 0.0 0.9 0.00 0.00 0.00 62 1026.0
20260509135057 41 0 0.0 0.9 0.00 0.00 0.00 68 1026.0
20260509134603 39 0 0.0 0.9 0.00 0.00 0.00 71 1026.0
20260509134102 37 0 0.0 0.9 0.00 0.00 0.00 69 1026.0
20260509133558 37 0 0.0 0.9 0.00 0.00 0.00 71 1025.9
20260509133105 37 0 0.0 0.9 0.00 0.00 0.00 73 1025.8
20260509132558 37 196 0.0 0.0 0.00 0.00 0.00 73 1025.6
20260509132102 37 205 0.0 0.9 0.00 0.00 0.00 70 1025.5
20260509131557 37 0 0.0 0.9 0.00 0.00 0.00 70 1025.3
20260509131057 37 0 0.0 0.0 0.00 0.00 0.00 70 1025.2